GEFSNE_500_meanwind_216.txt.gz
Wind_Speed
19 20 21 21 21 21 21 21 21 22 23 24 25 27 27 28 28 28 29 29 30 31 32 33 35 35 36 36 36 37 37 38 38 38 39 40 40 40
19 19 19 19 20 20 20 21 22 22 23 23 24 26 26 28 28 28 29 28 29 30 32 33 33 34 35 36 36 36 37 38 38 38 40 40 41 40
18 18 18 18 18 19 19 20 21 23 23 23 23 24 25 26 27 27 28 28 28 29 30 31 32 33 34 35 35 36 37 38 39 39 40 41 42 41
16 17 17 17 17 18 19 19 20 21 21 22 23 23 24 25 26 27 28 28 29 29 30 31 32 33 34 35 36 37 38 38 38 40 40 42 42 42
15 15 16 16 16 17 18 18 20 20 20 21 22 24 24 26 27 28 28 28 29 29 30 31 32 33 34 35 36 37 38 39 39 39 40 41 42 43
15 15 15 16 17 18 17 18 19 20 21 22 22 23 24 25 26 27 27 28 29 30 30 31 33 34 34 35 36 37 38 39 39 39 40 41 42 43
14 14 15 17 18 18 18 19 20 21 21 22 22 22 23 24 25 26 27 28 29 30 31 33 34 34 35 35 36 37 38 39 40 40 40 41 42 43
15 15 16 17 18 19 19 19 20 20 21 21 22 21 22 23 24 25 26 28 29 30 31 32 34 35 35 36 35 36 37 38 39 40 40 41 42 44
16 17 18 19 19 20 20 21 20 21 22 22 22 22 22 23 24 24 25 27 28 29 30 31 32 33 33 34 34 34 35 36 37 38 39 40 40 42
17 18 19 20 21 21 21 22 22 22 22 22 22 22 22 23 23 24 25 26 27 28 29 30 32 32 33 33 33 33 34 34 36 37 38 39 40 41
18 19 20 21 21 22 22 22 22 23 23 23 23 23 23 23 24 25 25 25 26 27 28 30 31 32 33 33 34 34 35 35 36 37 38 38 39 40
18 20 20 21 21 21 22 23 23 24 24 24 23 23 23 24 24 24 25 25 26 26 26 28 29 31 32 33 34 35 35 36 36 36 37 38 39 40
19 19 19 20 21 22 23 24 24 25 25 24 23 23 23 23 23 24 24 24 25 25 25 26 27 28 30 31 32 33 34 35 35 36 36 37 39 40
19 19 19 20 21 23 24 24 24 24 23 23 22 23 23 22 22 22 23 24 24 25 25 25 26 26 27 29 30 31 33 34 35 35 36 37 38 39
18 19 20 21 22 23 23 23 24 23 22 22 21 21 21 21 20 20 20 22 23 24 24 24 24 24 25 26 27 29 30 31 33 34 34 35 35 36
18 18 19 20 22 22 22 23 24 23 23 22 21 21 20 20 20 19 20 22 23 24 23 22 22 23 23 24 25 26 28 29 30 32 32 33 34 34
18 19 19 20 21 22 23 23 23 23 23 22 21 21 21 20 20 19 20 21 22 22 21 21 21 22 22 22 23 24 25 26 28 30 31 32 33 33
18 19 20 21 22 23 23 23 23 23 23 22 21 21 20 20 20 19 19 20 20 20 20 19 19 20 20 22 23 23 24 25 25 27 28 30 31 31
18 19 21 21 21 22 22 23 23 23 22 21 21 20 20 20 19 19 19 19 19 19 19 19 18 18 19 20 21 21 22 22 23 24 25 26 27 28
19 20 20 21 21 21 22 22 23 23 22 21 21 20 20 20 20 20 20 19 19 19 19 18 17 18 19 19 20 20 19 19 20 21 22 23 24 25
19 20 21 21 21 21 22 22 22 23 22 22 21 21 21 21 21 20 20 20 19 18 17 17 17 16 17 17 17 17 18 17 17 18 19 20 21 23
20 20 20 20 21 22 22 23 23 23 23 22 22 21 21 21 21 21 21 20 19 18 17 17 16 15 15 14 14 15 16 16 16 16 17 19 20 21
20 20 21 21 21 22 23 23 23 23 23 22 22 21 22 22 22 22 21 20 19 18 16 15 15 15 14 14 14 13 14 15 15 15 16 17 19 20

GEFSNE_500_meanwind_222.txt.gz
Wind_Speed
19 19 19 19 20 21 21 22 22 22 22 23 23 24 24 25 27 28 28 29 30 31 33 34 34 34 34 34 35 34 34 34 35 35 35 37 37 37
19 19 19 19 19 20 21 22 22 22 21 22 23 24 24 25 25 26 27 28 29 30 31 31 32 33 33 33 33 34 34 34 34 34 34 34 36 37
18 18 19 19 19 20 21 21 22 22 21 21 22 23 24 24 24 25 26 26 26 27 28 29 30 31 32 32 32 33 34 35 35 35 35 35 36 37
18 18 18 19 19 20 20 21 21 21 21 20 21 22 23 24 25 25 25 25 25 26 27 27 29 30 31 32 33 34 34 35 36 36 37 37 37 39
18 18 18 19 19 19 20 20 21 21 21 21 21 22 23 24 24 25 24 25 25 26 27 28 29 30 31 32 33 34 35 35 36 37 37 38 38 39
18 18 18 19 19 19 20 20 20 20 21 21 21 21 22 23 23 23 23 24 25 26 27 28 28 29 31 32 34 35 35 36 37 37 38 38 39 40
17 17 18 18 19 19 19 20 20 21 22 21 21 21 21 22 22 23 23 24 26 27 27 28 29 29 31 32 33 35 36 37 38 39 39 39 39 40
17 17 17 18 19 20 20 21 22 21 22 22 22 22 22 22 21 21 22 24 25 26 27 28 29 30 31 32 33 35 36 37 38 39 40 40 39 39
17 18 18 19 20 21 21 22 22 22 22 22 22 22 22 22 22 21 22 22 23 25 26 26 27 29 31 32 33 34 35 36 37 37 38 39 39 39
18 19 20 21 21 22 22 23 23 23 22 22 23 23 24 24 24 23 23 22 23 24 25 26 27 28 29 31 31 33 34 35 36 37 38 38 38 39
17 18 20 21 21 22 22 22 23 23 23 23 24 24 24 24 24 24 24 23 23 24 24 24 25 26 27 28 29 31 33 34 34 34 35 36 36 37
18 19 19 20 21 21 22 22 22 23 23 23 24 24 25 25 24 24 24 24 23 24 24 23 24 24 25 26 28 30 31 32 33 34 34 35 36 36
18 19 19 20 21 21 21 21 22 22 22 23 23 24 24 24 24 24 24 24 23 23 24 25 25 25 25 26 26 28 29 29 30 32 33 34 35 35
19 19 19 20 21 21 21 21 22 22 23 23 23 23 23 23 23 24 24 24 24 24 24 25 24 24 24 24 25 26 27 28 29 30 32 32 34 34
18 18 19 20 20 21 21 21 22 23 23 23 23 23 23 23 23 23 23 23 23 23 23 24 23 22 22 22 22 23 25 26 28 29 30 31 31 33
17 18 19 20 20 21 21 21 22 23 23 23 23 23 22 23 22 22 22 22 22 22 23 22 22 21 21 21 21 22 23 25 26 27 27 28 29 31
18 19 20 21 21 20 20 21 22 24 24 24 24 23 23 23 22 22 22 22 22 21 22 22 21 20 19 19 20 20 21 23 24 25 26 26 27 28
18 19 20 20 20 21 22 22 23 24 24 24 24 23 22 22 22 22 22 21 21 21 20 21 21 20 19 19 20 20 20 21 22 23 24 24 24 26
18 19 20 20 21 22 23 23 24 24 24 24 23 22 22 21 21 21 21 20 20 20 20 21 21 20 20 20 20 20 21 21 21 22 22 23 22 23
18 19 19 20 21 22 22 23 24 24 24 23 23 22 21 21 21 20 20 20 20 21 21 20 21 21 21 21 20 20 20 20 21 21 21 21 21 22
18 19 20 21 21 22 23 24 24 24 23 22 22 21 20 20 21 21 21 21 21 22 22 22 21 20 20 20 20 20 19 19 19 20 19 20 20 20
19 20 21 21 22 23 23 24 24 23 23 22 21 21 21 21 21 21 21 22 22 22 23 22 22 21 20 20 19 19 19 19 20 20 19 19 19 20
20 21 22 23 23 24 24 24 23 23 23 22 22 22 22 22 22 22 22 23 23 23 23 22 21 21 20 19 18 19 19 19 19 19 19 19 19 19

GEFSNE_500_meanwind_228.txt.gz
Wind_Speed
16 17 17 17 18 18 18 19 19 19 19 20 21 22 23 23 23 25 26 26 27 28 28 29 30 30 32 33 34 34 35 36 36 36 36 36 36 37
16 16 16 17 17 18 18 19 19 20 20 21 22 22 23 24 24 25 25 26 27 28 29 30 30 31 31 31 32 34 35 35 35 36 37 37 36 36
16 17 17 17 17 18 18 19 20 20 20 21 22 22 23 24 24 25 25 26 26 27 27 28 29 30 31 31 32 33 33 34 35 36 37 37 36 36
16 16 17 17 18 19 18 19 19 20 20 21 22 22 22 23 24 24 24 25 25 26 26 27 28 30 31 32 32 32 33 34 35 36 37 38 38 37
15 16 16 17 17 18 18 18 19 19 20 21 21 21 22 22 23 23 23 24 25 26 27 27 28 30 31 32 33 33 34 35 36 37 38 39 39 40
15 16 17 17 17 18 18 19 19 20 20 21 21 21 21 21 22 23 24 24 25 26 27 28 28 30 30 32 33 34 35 37 37 38 39 39 40 40
15 16 16 17 17 17 18 19 19 20 20 20 20 21 21 21 22 23 24 25 25 25 25 26 27 28 30 31 32 33 35 37 38 39 39 40 41 41
16 16 16 16 16 17 17 18 19 20 20 20 21 21 21 21 21 21 23 23 24 25 25 25 26 26 27 29 30 32 33 35 37 39 39 40 41 42
17 16 16 16 17 18 18 19 19 20 21 21 22 21 21 21 21 21 22 23 24 25 26 25 26 26 27 28 29 31 32 34 35 37 39 39 40 41
16 16 16 17 18 18 19 19 20 20 21 21 22 21 21 21 21 22 22 23 23 24 25 25 26 26 26 27 28 29 30 32 33 34 35 38 40 40
17 16 17 17 18 18 18 19 20 21 21 21 22 21 21 22 22 22 22 22 22 23 24 24 24 25 25 25 26 28 29 30 31 32 34 36 38 39
17 17 17 18 18 18 19 19 20 21 21 21 21 21 21 21 22 22 22 23 23 22 23 23 24 24 24 24 25 26 27 29 30 31 31 32 35 37
18 18 18 18 18 19 19 20 21 21 21 20 20 20 21 22 22 22 22 23 22 22 23 23 24 24 24 24 24 25 26 28 29 30 30 31 32 35
18 18 19 19 19 19 20 20 21 21 20 20 20 21 21 22 22 22 23 22 22 22 22 23 23 24 25 25 25 25 25 26 28 29 30 30 31 32
17 18 18 19 20 20 20 21 22 21 20 20 21 21 22 22 22 22 22 22 22 22 22 23 23 24 24 25 25 25 25 25 26 28 29 30 31 32
16 18 18 18 19 20 21 21 21 20 20 21 21 21 21 21 21 21 21 21 22 22 23 23 23 23 23 23 24 24 24 24 25 26 28 29 29 30
16 17 18 18 19 20 20 20 20 20 20 20 21 21 21 21 21 21 22 22 22 22 22 23 23 23 23 23 23 24 24 24 24 25 26 27 28 30
16 17 17 17 18 19 18 18 19 19 19 20 20 21 21 21 21 21 21 22 22 22 22 22 22 22 23 23 23 22 22 23 24 24 25 25 27 28
16 16 17 18 18 19 18 18 19 19 19 19 20 20 20 20 20 21 21 21 21 22 22 22 23 22 22 22 21 22 22 22 23 23 24 25 25 26
15 16 16 17 18 18 18 19 19 19 19 19 20 20 20 20 21 21 21 21 21 21 22 22 22 23 23 23 22 21 21 22 22 22 23 24 24 24
15 16 16 17 17 17 18 18 18 19 20 20 20 20 21 21 21 21 21 21 21 21 21 21 22 22 23 23 22 21 21 22 22 22 23 23 23 24
16 16 16 17 17 17 18 18 19 19 20 21 21 21 21 21 22 21 21 22 22 22 22 22 22 23 23 23 23 22 22 22 22 22 22 22 22 22
16 17 17 17 18 19 19 20 20 20 21 22 22 22 22 22 22 22 22 22 22 22 22 22 22 22 22 21 21 21 21 21 21 21 21 21 22 22

GEFSNE_500_meanwind_234.txt.gz
Wind_Speed
17 18 18 19 19 19 19 19 19 19 20 22 23 24 25 26 26 26 27 28 27 27 28 28 29 29 30 30 30 31 31 32 32 32 32 33 34 34
16 17 18 17 18 18 19 20 20 20 21 22 23 24 25 25 25 26 26 27 27 28 28 29 28 29 28 29 29 29 30 30 31 32 32 32 33 34
16 17 18 18 18 19 20 20 21 21 21 22 22 23 24 24 25 26 26 26 27 28 28 28 29 29 28 29 29 29 29 30 32 32 33 33 33 34
17 17 18 18 19 19 19 20 20 21 21 21 22 22 23 24 25 26 26 26 26 27 28 28 28 29 29 30 30 30 30 30 31 32 33 34 35 35
17 17 18 18 18 19 20 21 21 21 22 22 22 23 23 24 24 24 25 26 26 26 27 28 28 28 29 30 30 31 31 31 32 33 34 35 36 37
16 17 18 18 18 19 20 21 21 22 23 23 23 23 23 24 24 24 24 25 26 26 26 26 27 27 28 29 30 31 31 32 32 34 34 35 36 38
16 17 18 19 19 19 20 21 21 22 22 23 23 24 24 24 24 24 24 25 25 26 26 26 26 27 28 28 29 30 30 31 32 33 34 35 36 37
18 18 19 19 20 20 20 21 21 22 23 23 24 24 24 24 24 24 24 25 25 25 26 26 27 27 27 27 27 29 30 31 32 33 34 35 36 37
18 18 19 19 19 20 20 21 21 21 22 22 23 23 23 24 24 24 24 25 25 26 26 26 27 27 28 27 27 27 28 30 31 32 33 34 36 37
18 18 19 19 19 20 20 21 21 21 21 22 22 22 23 23 23 23 24 25 25 26 26 26 26 27 28 28 28 28 27 28 29 31 32 33 34 35
18 18 19 19 19 19 20 20 21 22 22 22 22 23 24 25 24 24 24 24 24 24 25 25 26 26 27 28 28 28 28 28 28 29 30 32 33 34
19 19 19 20 20 20 20 20 21 22 22 22 22 23 24 25 25 25 25 24 24 24 25 26 26 26 26 26 27 28 29 29 29 30 30 31 32 34
20 20 20 19 20 20 20 20 21 21 21 21 21 22 23 24 24 24 24 23 23 24 25 25 25 26 26 26 26 27 28 28 29 29 30 31 32 33
20 20 19 19 20 20 20 20 20 20 20 20 21 22 23 23 22 22 22 22 22 23 24 24 24 24 25 26 26 27 27 27 28 29 30 30 32 32
20 19 19 19 19 19 20 21 21 20 21 21 21 22 23 23 21 21 22 22 22 23 23 24 23 24 25 26 26 26 26 26 27 27 29 29 30 32
19 19 19 19 19 19 20 21 21 21 22 22 22 23 24 23 22 22 22 23 23 24 24 24 24 24 24 25 25 25 25 25 26 27 28 29 29 30
18 18 18 18 19 19 20 20 21 21 22 23 23 23 22 21 21 22 22 22 22 23 24 25 26 26 26 26 26 26 26 25 25 26 26 27 28 29
17 17 17 17 17 18 18 19 19 20 21 21 22 22 21 21 21 22 22 23 23 24 24 26 26 27 27 26 26 26 25 25 25 25 25 26 27 29
17 18 17 17 17 17 18 18 18 19 20 20 20 20 20 21 21 22 22 23 24 24 25 26 26 26 26 26 25 26 25 25 25 26 26 26 27 28
17 17 16 17 17 18 18 19 19 20 20 20 20 20 21 21 22 22 22 23 23 23 24 24 25 25 25 25 24 24 25 25 25 25 26 26 26 27
17 17 17 17 17 18 19 19 20 21 20 21 21 22 22 23 22 22 22 22 23 23 23 23 23 24 24 24 24 24 25 26 26 26 26 27 26 27
18 18 18 18 18 19 19 20 20 20 21 21 22 22 23 23 23 22 22 22 22 22 21 21 22 23 23 23 24 23 24 25 26 27 27 26 26 26
17 17 17 18 19 19 20 20 20 21 21 22 23 23 23 22 22 22 21 21 21 20 20 21 21 22 22 23 23 23 23 24 25 25 25 24 24 24

GEFSNE_500_meanwind_240.txt.gz
Wind_Speed
17 18 18 19 19 19 20 20 20 20 20 21 22 23 23 24 25 25 26 26 27 28 28 28 28 29 30 30 30 30 30 30 31 31 31 31 31 32
17 18 18 18 19 20 20 20 20 20 19 20 22 23 23 24 24 25 26 26 27 27 28 28 28 28 29 30 30 30 30 30 31 31 32 31 31 31
17 17 17 18 18 19 19 19 19 19 19 20 21 22 23 23 24 25 25 26 27 27 27 27 27 28 28 29 30 30 30 30 31 31 32 33 32 32
16 16 17 18 19 19 18 18 18 19 19 20 21 22 23 24 25 25 26 26 26 26 27 27 27 28 28 29 30 30 31 31 32 32 33 33 33 33
16 16 18 19 19 19 19 18 19 19 20 21 22 23 24 24 25 25 26 26 26 26 27 28 28 29 29 29 30 31 32 32 32 32 33 34 34 34
17 17 18 19 19 19 19 19 20 20 21 21 22 22 23 24 24 25 26 27 27 28 28 29 29 30 30 30 30 31 31 33 33 32 32 33 34 34
18 19 19 19 19 19 20 20 21 21 22 22 23 23 24 25 26 26 26 27 28 28 29 30 30 31 31 31 31 31 31 32 32 32 32 33 34 35
18 19 19 20 19 20 20 21 21 22 23 23 23 24 24 25 26 26 26 27 27 28 29 29 30 30 30 30 31 31 32 32 32 33 33 33 34 35
18 19 19 20 20 21 20 20 21 21 22 22 23 23 24 25 26 26 26 27 26 27 27 27 27 28 28 28 29 30 31 32 32 33 33 34 35 35
18 19 20 20 21 21 21 21 21 21 22 22 22 24 25 25 26 26 25 25 25 26 26 27 27 27 27 28 28 29 30 31 33 33 34 34 35 36
19 20 21 21 20 20 21 21 21 21 22 23 23 24 24 24 25 25 25 25 25 26 26 27 27 27 28 28 28 29 30 31 32 33 33 34 35 35
20 21 21 21 20 20 21 22 22 22 22 22 23 23 23 23 23 24 25 26 26 26 26 27 27 28 28 29 29 29 30 30 31 32 32 33 34 35
21 21 21 21 20 21 22 22 22 22 22 23 23 23 22 22 22 23 24 25 25 25 26 26 27 27 28 29 29 30 30 30 30 30 30 31 32 33
22 22 21 20 21 22 22 21 21 21 21 22 22 23 23 23 23 23 23 23 23 24 25 26 25 26 26 27 28 28 29 29 29 29 30 30 31 33
22 21 20 20 21 21 21 20 20 20 20 21 22 22 22 22 22 23 23 23 22 22 23 23 24 25 25 26 26 26 27 27 28 28 29 30 31 32
21 21 21 20 20 20 20 20 20 20 21 21 21 21 21 22 22 22 23 23 23 23 23 23 24 25 25 26 26 26 27 27 28 28 29 30 30 31
21 20 20 20 19 19 19 19 20 20 20 20 21 21 21 22 22 22 23 24 24 24 24 24 25 25 26 26 27 28 28 29 29 29 29 30 30 30
22 21 20 20 19 19 19 18 18 19 19 20 20 20 20 20 21 22 23 23 22 23 24 25 26 26 26 26 27 27 28 28 29 29 29 29 29 29
21 20 20 19 18 18 19 19 19 19 19 19 19 19 20 20 21 22 22 22 22 22 23 24 25 26 26 25 25 26 27 27 28 28 28 28 28 28
19 18 18 18 18 18 19 19 19 19 19 19 19 19 20 20 21 21 21 21 22 22 21 22 22 23 23 24 24 24 25 26 27 28 28 28 28 29
19 18 18 18 18 19 19 19 19 19 19 19 20 20 20 20 20 20 20 20 20 19 19 19 20 21 21 22 22 23 25 26 27 28 28 28 29 29
19 19 19 18 18 18 18 19 19 19 20 20 20 20 20 20 20 20 20 20 19 19 19 20 21 22 22 22 23 24 25 25 25 26 26 27 28 28
19 19 19 19 19 18 18 19 19 20 20 20 20 20 21 20 20 20 20 19 19 19 20 20 21 22 22 23 23 24 24 25 24 24 25 25 25 25

GEFSNE_500_meanwind_246.txt.gz
Wind_Speed
19 19 19 19 18 19 20 19 20 19 19 19 21 21 22 22 23 22 23 23 24 24 24 26 26 27 27 28 28 28 29 29 29 29 29 29 29 29
18 18 18 19 19 19 19 19 19 19 19 20 21 21 21 22 23 23 24 23 24 24 25 25 26 27 28 28 28 28 29 28 28 28 29 29 30 30
17 17 17 17 17 17 18 18 18 19 19 20 20 21 21 22 23 24 24 24 24 24 25 25 26 27 28 28 29 29 29 29 29 28 29 29 29 30
16 17 18 18 17 17 18 18 19 19 20 20 20 21 21 22 22 23 24 24 24 25 25 26 26 27 27 28 29 29 29 29 29 29 29 29 30 30
17 17 17 18 18 19 19 19 20 20 20 20 20 21 22 23 23 23 24 24 24 25 25 25 26 26 27 27 28 28 29 29 29 30 30 30 31 31
18 19 19 19 20 20 20 20 21 21 21 21 21 22 23 24 24 24 24 25 25 25 25 25 25 26 27 27 27 27 28 29 30 30 30 30 31 31
19 19 20 20 21 21 21 21 22 22 22 22 22 22 22 23 24 24 25 25 25 26 26 26 27 27 27 27 27 28 29 29 29 29 30 30 31 31
19 20 20 20 20 22 22 22 22 22 22 22 22 22 23 23 24 24 24 25 25 26 26 26 27 27 27 27 28 28 29 29 29 30 30 30 30 31
19 20 20 19 21 21 22 22 21 21 21 21 22 22 23 23 24 24 24 25 25 26 26 26 27 27 27 28 28 29 29 30 30 30 31 31 30 30
19 19 20 20 21 22 22 21 21 21 21 21 22 22 23 23 23 23 24 24 25 26 26 26 26 27 27 28 29 30 30 30 30 30 30 31 31 31
19 20 20 21 22 22 22 22 22 22 22 21 22 22 23 23 23 23 23 23 23 24 25 25 25 26 26 27 29 30 30 30 30 30 31 31 31 31
20 20 20 21 22 22 22 22 22 23 23 22 23 23 23 23 23 22 23 23 23 24 24 24 24 25 26 27 28 28 28 29 29 29 30 30 31 31
20 20 21 22 22 23 23 23 23 24 23 23 23 23 23 23 23 22 22 23 23 24 24 24 24 25 26 26 27 28 28 28 28 29 29 30 30 30
21 21 21 22 23 23 23 23 23 23 23 23 23 22 22 22 21 22 22 22 22 23 23 23 24 24 24 25 26 26 26 27 27 28 28 29 29 29
21 21 22 23 23 23 23 23 23 23 23 23 22 22 21 20 20 20 21 22 22 23 23 23 23 23 23 24 24 24 25 25 27 27 27 28 28 29
22 22 22 23 23 23 23 23 23 23 22 22 21 21 21 21 21 21 22 22 22 22 22 23 23 23 23 24 24 25 25 26 26 25 26 26 27 28
22 22 22 22 23 23 22 22 23 22 22 22 22 22 22 22 23 23 23 23 22 22 22 23 23 24 25 25 25 25 26 26 26 26 26 27 27 27
21 21 21 21 22 22 22 22 22 22 22 23 23 23 23 23 23 23 23 23 23 24 24 24 24 25 25 25 25 26 27 27 27 27 28 28 29 29
20 20 21 22 23 22 22 22 22 22 22 22 23 23 23 23 23 23 23 24 24 24 25 24 24 25 25 25 25 26 27 27 27 27 28 28 28 29
21 21 22 22 23 22 22 22 22 22 22 22 22 22 22 23 23 23 23 23 23 24 24 23 24 25 25 25 25 26 27 27 27 27 28 28 28 29
21 22 22 22 22 22 22 23 24 23 23 23 23 23 23 23 23 23 22 22 22 22 22 23 23 23 24 24 24 24 25 26 27 28 28 29 29 29
21 22 22 22 22 22 22 23 23 23 22 23 23 23 22 22 22 22 22 22 23 23 23 23 22 22 22 22 22 22 23 24 25 26 27 28 28 28
22 22 22 22 21 22 23 23 22 22 22 22 22 22 22 23 23 23 23 23 24 24 23 22 22 22 22 22 22 22 23 23 24 24 25 25 25 26

GEFSNE_500_meanwind_252.txt.gz
Wind_Speed
16 16 17 17 17 18 18 17 17 17 17 18 19 20 22 22 22 22 22 22 23 23 24 25 26 26 27 27 28 28 28 28 29 29 29 28 28 28
15 16 16 16 17 17 17 17 17 17 16 17 18 19 20 21 21 21 22 22 23 23 24 25 25 26 27 28 29 29 28 28 29 29 29 29 29 29
15 15 15 16 16 17 18 18 18 17 17 17 18 19 20 21 22 22 23 23 24 24 24 25 25 25 26 27 28 29 29 29 29 29 30 29 30 29
15 16 16 16 16 17 17 18 18 17 17 17 17 18 20 21 21 21 22 24 25 25 26 26 26 26 27 27 28 29 29 29 30 30 30 30 30 30
16 16 17 17 17 17 17 17 17 18 17 17 18 18 19 20 21 22 22 24 25 25 25 26 26 26 27 27 27 27 28 29 30 30 30 31 31 31
17 17 18 18 18 19 18 18 18 18 18 19 19 19 20 20 21 21 22 23 24 25 25 26 26 26 27 28 28 28 28 29 29 29 29 30 31 31
18 19 19 19 19 19 19 19 19 19 19 20 20 20 20 21 22 22 23 23 24 24 25 26 27 27 27 28 28 29 29 29 30 30 29 29 30 31
20 20 20 20 19 20 20 20 20 20 21 21 21 22 22 22 23 23 23 23 23 24 24 25 26 27 28 29 29 29 29 29 30 30 30 30 30 31
21 21 20 20 20 20 20 21 21 22 23 22 23 22 22 22 23 23 23 23 24 24 24 25 25 27 28 29 29 29 29 29 30 30 30 30 30 31
20 20 20 20 21 20 21 22 22 22 23 23 22 23 23 23 22 23 23 23 24 24 24 25 25 26 27 27 29 29 30 30 30 30 30 31 31 31
19 19 20 20 20 20 21 21 22 22 22 22 23 23 23 23 23 23 22 23 23 24 25 25 25 26 26 26 27 28 29 30 30 31 31 31 31 31
19 19 19 19 19 20 21 21 22 22 22 22 22 23 22 23 23 23 23 23 23 24 24 24 24 25 26 27 27 28 29 29 30 30 31 31 31 32
20 20 19 19 19 20 20 21 21 21 21 22 22 23 22 22 23 23 22 23 23 23 23 23 23 24 24 25 26 27 28 29 29 30 30 31 32 32
19 19 19 19 19 20 20 20 21 21 21 21 22 22 21 21 21 21 21 21 21 22 22 22 22 22 23 24 24 25 26 27 28 28 29 30 30 31
18 18 19 19 19 19 20 20 21 21 21 21 21 21 21 20 21 21 21 21 22 22 23 23 23 23 24 24 24 25 26 26 27 28 28 29 30 30
19 19 20 20 20 20 20 20 21 21 21 22 22 22 21 21 21 21 21 22 22 23 23 24 25 25 25 25 25 26 26 26 27 28 29 29 29 30
19 19 20 20 20 19 19 20 20 21 21 22 22 22 22 22 22 22 22 22 22 23 24 24 25 25 25 25 26 27 27 28 28 29 29 29 29 29
20 20 20 20 20 20 20 20 20 21 21 22 22 22 22 22 23 23 23 23 24 24 25 26 26 26 26 27 27 27 28 29 29 30 30 29 30 31
21 20 20 21 21 21 21 21 21 22 22 22 22 22 23 23 23 24 24 25 25 26 27 27 27 27 27 28 28 29 29 29 29 29 29 30 30 31
21 21 21 21 22 22 22 23 23 23 23 23 23 23 23 23 24 25 25 26 26 27 27 27 28 28 28 29 29 29 29 29 30 29 29 30 30 30
20 21 22 22 23 24 24 24 24 24 24 24 24 24 24 24 24 25 26 26 26 26 26 26 27 28 28 28 28 28 28 29 30 30 30 30 30 31
19 20 21 22 23 24 25 25 25 25 25 24 24 24 24 24 25 25 25 25 25 25 25 26 26 27 27 27 27 28 28 28 28 29 30 30 30 30
19 20 21 23 24 24 24 24 24 24 24 23 23 24 24 25 25 25 25 25 24 24 24 25 25 25 26 26 26 26 26 26 26 27 28 29 30 30

GEFSNE_500_meanwind_258.txt.gz
Wind_Speed
17 17 18 18 19 19 19 19 20 20 21 21 22 22 22 23 23 23 24 25 25 25 25 25 25 26 26 26 27 27 27 27 28 29 28 28 27 27
17 17 17 18 18 19 19 19 20 20 20 21 22 23 23 24 24 25 25 25 26 26 26 26 26 27 27 27 27 28 28 28 28 29 29 29 29 28
17 18 18 18 18 19 19 19 19 20 21 21 21 22 23 24 25 25 25 25 26 27 27 27 27 27 27 27 27 27 28 29 29 29 29 30 30 29
18 19 19 20 19 20 20 20 20 20 20 21 22 23 23 24 24 25 25 25 25 26 26 27 27 27 27 28 28 28 29 29 29 29 30 29 30 30
19 20 20 20 20 21 20 20 21 21 21 21 22 22 22 23 24 24 24 24 24 25 26 27 27 27 27 28 28 28 28 29 30 29 30 30 30 30
20 20 20 20 21 21 21 21 21 21 21 21 21 22 22 22 23 24 24 24 24 25 25 26 26 26 26 27 28 29 30 30 30 30 30 30 31 31
20 21 21 21 21 21 22 21 21 21 21 21 21 21 22 22 23 23 24 24 25 25 26 26 26 26 26 26 26 27 28 29 30 30 30 31 31 31
21 21 22 21 21 21 21 21 21 21 21 21 21 22 23 24 24 25 25 25 25 25 26 27 26 26 26 26 27 27 28 29 29 29 29 30 30 30
21 21 22 22 23 22 22 22 22 23 23 23 22 23 24 24 25 25 25 26 26 26 26 26 26 26 27 27 27 28 29 29 30 29 29 30 30 31
21 22 22 23 23 22 22 23 23 24 23 23 23 24 25 25 25 26 26 25 26 26 26 25 25 26 27 27 28 28 28 29 30 31 30 30 31 31
21 22 22 22 22 22 22 23 23 23 23 23 24 24 25 25 26 26 26 26 25 25 26 25 25 26 27 28 28 29 29 30 30 31 31 31 32 32
21 22 22 22 23 23 22 22 23 23 24 24 24 24 25 26 26 26 26 26 26 26 26 26 26 26 26 27 28 28 29 29 30 31 32 32 32 32
21 21 21 21 22 23 22 22 23 23 23 24 24 25 25 25 26 26 26 26 26 26 26 26 26 26 25 26 27 27 28 28 29 30 31 32 32 32
20 20 21 21 21 22 23 23 23 24 24 24 24 24 25 25 25 25 26 25 25 25 24 24 25 25 25 24 23 24 25 26 28 28 29 30 31 31
21 20 20 21 22 22 22 22 23 23 24 24 24 25 25 25 26 26 25 24 23 23 24 25 24 24 24 24 23 24 25 26 27 27 28 29 30 30
22 21 21 21 22 22 22 23 23 23 23 23 23 24 24 24 24 24 24 23 22 23 24 24 24 24 24 24 24 25 26 26 26 27 28 29 29 30
23 23 22 22 22 22 23 23 23 23 23 23 23 23 24 24 23 23 23 23 23 23 24 24 25 25 26 26 26 27 27 27 27 28 29 29 30 31
23 23 23 23 22 23 23 22 22 22 22 22 23 23 22 23 24 24 24 24 25 25 25 26 26 25 25 26 27 27 27 28 28 28 28 29 30 31
23 23 23 23 24 23 23 23 23 23 23 23 22 22 23 23 24 24 24 24 24 25 25 26 26 26 27 27 27 28 28 28 29 29 29 29 30 31
23 23 23 23 24 23 24 25 25 24 24 23 23 23 24 24 24 24 24 25 26 26 27 27 27 27 28 28 28 29 29 29 29 30 30 31 31 32
24 24 24 24 25 25 26 26 26 25 25 24 24 25 25 25 24 24 25 26 27 27 27 27 28 28 28 29 29 29 29 29 30 30 30 31 32 32
24 25 25 25 26 26 27 27 26 26 26 26 26 26 26 25 25 25 25 26 26 27 27 27 27 27 28 28 29 29 29 30 30 31 31 31 32 32
24 25 25 25 25 25 26 25 25 25 26 26 25 25 25 25 25 25 26 26 25 26 26 27 27 28 28 28 29 29 29 30 30 30 31 31 31 32